www.pogodaiklimat.ru

ПОГОДА в Эрвине, NC

  • Прогноз погоды в Эрвине
  • Монитор погоды в Эрвине
  • Климат в Эрвине

АРХИВ ПОГОДЫ в Эрвине

Время (UTC), дата Ветер
(напр.,м/с)
 
Видим.   Явления Облачность Т
(С)
Тd
(С)
f
(%)
Тe
(С)
Тes
(С)
Комфортность

P
(гПа)

Po
(гПа)
Тmin
(С)
Tmax
(С)
R
(мм)
SD
(см)
06:40 26.03 СЗ  11 км    10/10 180 м  +13.0  +13.0  100  +12  +12      1005.9         
07:00 26.03 С  16 км    10/10 270 м  +12.7  +12.7  100  +12  +12      1006.2         
07:20 26.03 С  16 км    10/10 270 м  +12.5  +12.5  100  +11  +11      1006.2         
07:40 26.03 С  11 км  морось  10/10 270 м  +12.3  +12.3  100  +11  +11      1006.6         
08:00 26.03 С  5
{8} 
16 км  морось  10/10 270 м  +11.7  +11.7  100  +9  +9      1006.9         
08:20 26.03 С  4
{9} 
16 км  морось  10/10 270 м  +10.5  +10.5  100  +7  +7      1007.6         
08:40 26.03 С  4
{8} 
16 км  слабая морось  10/10 360 м  +10.1  +10.1  100  +7  +7      1008.3         
09:00 26.03 С  3
{8} 
16 км    10/10 360 м  +9.3  +9.1  99  +6  +6      1008.9         
09:20 26.03 С  16 км  слабая морось  10/10 300 м  +8.7  +8.7  100  +5  +5      1009.3         
09:40 26.03 С  4
{7} 
16 км  слабая морось  10/10 360 м  +8.1  +7.8  98  +5  +5      1009.6         
10:00 26.03 С  3
{8} 
16 км  слабая морось  10/10 420 м  +7.8  +6.6  92  +5  +5      1010.3         
10:20 26.03 СВ  16 км    10/10 480 м  +7.8  +6.7  93  +4  +4      1010.6         
10:40 26.03 С  6 км    10/10 480 м  +7.6  +7.3  98  +4  +4      1010.9         
11:00 26.03 С  11 км  слабая морось  10/10 540 м  +7.7  +7.3  97  +4  +4      1011.6         
11:20 26.03 С  16 км    10/10 480 м  +8.0  +7.1  94  +5  +5      1012.0         
11:35 26.03 С  16 км    10/10 480 м  +8.0  +6.7  91  +5  +5      1012.3         
12:00 26.03 С  4
{8} 
16 км    10/10 480 м  +8.2  +6.7  90  +4  +4      1012.6         
12:20 26.03 С  3
{8} 
16 км    10/10 600 м  +8.5  +6.4  87  +6  +6      1013.0         
12:40 26.03 С  4
{9} 
16 км    10/10 600 м  +8.5  +6.1  85  +5  +5      1013.3         
13:00 26.03 С  3
{7} 
16 км    10/10 600 м  +9.0  +5.3  78  +7  +7      1013.6         
13:20 26.03 С  6
{9} 
16 км    10/10 630 м  +9.0  +4.9  75  +5  +5      1013.6         
13:40 26.03 С  4
{9} 
16 км    10/10 630 м  +9.2  +5.0  75  +6  +6      1014.0         
14:00 26.03 С  3
{9} 
16 км    10/10 690 м  +9.5  +5.1  74  +7  +7      1014.3         
14:20 26.03 С  16 км    10/10 630 м  +9.5  +5.2  75  +7  +7      1014.6         
14:35 26.03 С  3
{7} 
16 км    10/10 630 м  +9.8  +5.3  74  +7  +7      1014.6         
15:00 26.03 С  4
{8} 
16 км    10/10 720 м  +10.5  +4.9  68  +8  +8      1014.6         
15:20 26.03 С  16 км    8/8 720 м  +10.4  +4.4  66  +8  +10      1014.6         
15:40 26.03 С  16 км    8/8 870 м  +11.6  +4.8  63  +9  +11      1014.3         
16:00 26.03 СВ  6
{10} 
16 км    8/8 930 м  +12.8  +4.2  56  +10  +11      1014.3         
16:20 26.03 СВ  5
{7} 
16 км    5/5 1080 м  +12.5  +3.6  55  +10  +13      1014.3         
16:35 26.03 С  4
{7} 
16 км    5/5 1080 м  +13.1  +3.0  50  +11  +15      1014.3         
16:55 26.03 С  5
{9} 
16 км    ясно  +13.8  +2.2  45  +12  +18      1014.3         
17:15 26.03 СВ  16 км    ясно  +14.4  +1.2  41  +13  +18      1014.3         
17:40 26.03 С  16 км    ясно  +14.1  +1.2  41  +13  +24  опасность
простуды 
  1014.3         
17:55 26.03 СВ  4
{8} 
16 км    ясно  +15.1  +1.2  39  +14  +23      1014.0         
18:15 26.03 С  4
{8} 
16 км    ясно  +14.7  +1.7  41  +13  +20      1014.0         
18:35 26.03 С  16 км    ясно  +15.1  +1.3  39  +14  +21      1013.6         
19:00 26.03 СВ  3
{8} 
16 км    ясно  +15.1  +0.9  38  +15  +22      1013.6         
19:15 26.03 С  4
{8} 
16 км    ясно  +15.3  +1.5  39  +14  +20      1013.6         
19:40 26.03 С  4
{9} 
16 км    ясно  +15.7  +1.5  38  +15  +21      1014.0         
20:00 26.03 С  16 км    ясно  +15.4  +2.0  40  +15  +18      1014.0         
20:20 26.03 С  16 км    5/5 1650 м  +15.4  +1.6  39  +14  +16      1014.3         
20:40 26.03 С  3
{7} 
16 км    5/5 1650 м  +15.1  +1.1  39  +14  +16      1014.6         
21:00 26.03 С  16 км    5/5 1650 м  +14.6  +1.2  40  +14  +14      1014.6         
21:15 26.03 СВ  4
{7} 
16 км    ясно  +14.5  +0.7  39  +13  +15      1015.0         
21:40 26.03 СВ  16 км    ясно  +14.0  0.0  38  +13  +14      1015.3         
22:00 26.03 С  16 км    ясно  +13.1  -0.5  39  +12  +12      1015.7         
22:20 26.03 С  16 км    ясно  +12.3  -0.3  42  +12  +12      1015.7         

 

Местоположение метеостанции Harnett County Airport: широта 35.3786 долгота -78.7336 высота над уровнем моря 60 м.

В архиве по умолчанию представлена погода в Эрвине за последние 1-2 суток. Обновление информации о фактической погоде в базе происходит ежечасно! Архивные данные за месяц целиком и за предыдущие месяцы Вы можете получить, выбрав интересующий диапазон дат из раскрывающегося списка и нажав кнопку "Ввод!".

Внимание! Архив погоды МЕТАР в базе сайта хранится не более 60 дней. Нет смысла пытаться выбрать более раннюю дату.

Внимание! Время в таблицах - всемирное. Для получения местного времени необходимо прибавить поправку, которая в Эрвине равна -5 ч.

Ветер - указаны скорость ветра в м/с и направление, откуда дует ветер: С - северный, СВ - северо-восточный, В - восточный, ЮВ - юго-восточный, Ю - южный, ЮЗ - юго-западный, З - западный, СЗ - северо-западный.
Видимость - горизонтальная дальность видимости в метрах или километрах. При видимости от 1 до 10 км при отсутствии осадков обычно наблюдается дымка, при ухудшении видимости до 1 км и менее - туман. В сухую погоду видимость может ухудшаться дымом, пылью или мглою.
Атмосферные явления - указаны явления, наблюдавшиеся в указанный момент времени.
Облачность - указаны через наклонную черту верхняя и нижняя облачность в баллах и высота нижней границы облаков в метрах. Внимание: облачность, как и прочие метеорологические величины в США измеряются автоматическими метеостанциями. Указанные значения в баллах носят условный характер и показывают процент времени, в течение которого, в среднем, лазерный луч высотомера отражался от облаков обратно.
T - Температура воздуха - температура, измеренная на высоте 2 м над землей.
Td - Температура точки росы - температура, при понижении до которой содержащийся в воздухе водяной пар достигнет насыщения.
f - Относительная влажность воздуха - влажноcть воздуха, измеренная на высоте 2 м над землей.
Te - Эффективная температура - температура, которую ощущает одетый по сезону человек в тени. Характеристика душности погоды. При расчете учитывается влияние влажности воздуха и скорости ветра на теплоощущения человека.
Tes - Эффективная температура на солнце - температура, которую ощущает человек, с поправкой на солнечный нагрев. Характеристика знойности погоды. Зависит от высоты солнца над горизонтом, облачности и скорости ветра. Ночью, в пасмурную погоду, а также при ветре 12 м/с и более поправка равна нулю.
P - Атмосферное давление - приведенное к уровню моря атмосферное давление.
Po - Атмосферное давление - измеренное на уровне метеостанции атмосферное давление.
Tmin - Минимальная температура - минимум температуры воздуха на высоте 2 м над землей.
Tmax - Максимальная температура - максимум температуры воздуха на высоте 2 м над землей.
R - Количество осадков - Количество выпавших осадков за 3 или 6 часов, мм.
SD - Снежный покров - Высота снежного покрова, см.